Wind_Speed
10 10 10 10 10 11 12 12 12 13 13 14 15 15 14 14 14 13 13 13 12 12 12 12 12 12 13 12 12 12 13 13 13 14 14 14 13 14 14 13 13 13 12
10 10 10 10 11 11 11 12 12 12 13 13 14 15 15 14 14 14 14 13 13 13 13 14 14 14 13 13 13 13 13 14 14 14 14 14 14 14 14 13 13 13 13
10 10 10 10 10 11 11 11 12 12 13 14 14 14 14 14 14 14 14 14 14 14 14 14 14 14 13 13 13 13 14 15 14 14 14 14 14 14 14 14 14 14 13
10 10 10 11 11 12 12 12 13 13 13 14 14 14 13 14 14 14 15 14 14 14 14 14 14 14 14 14 14 14 15 15 14 14 14 14 14 14 14 13 14 14 14
11 11 11 12 12 13 13 14 14 14 14 14 14 14 14 14 15 15 15 15 15 15 15 15 15 15 15 15 15 15 15 15 15 15 14 14 14 14 14 14 14 14 14
12 12 12 13 13 14 14 14 14 14 14 14 15 15 15 15 16 16 16 17 17 17 17 17 17 17 17 17 17 16 16 16 15 15 14 14 13 13 14 14 14 15 14
13 13 14 14 15 15 15 15 15 14 15 15 16 16 16 16 17 17 18 17 18 18 18 18 18 18 18 18 18 18 18 16 15 15 14 14 14 14 14 14 14 14 14
14 14 14 14 15 15 16 16 16 15 16 16 17 17 17 17 17 18 18 18 18 19 19 19 19 19 19 20 20 19 18 17 17 15 15 15 15 14 14 14 14 13 13
14 15 16 16 16 16 16 17 17 17 17 17 17 17 17 17 17 18 18 18 18 18 18 19 19 20 20 20 19 19 19 18 18 17 17 16 15 15 15 15 15 14 14
15 16 16 17 17 17 17 17 17 17 17 18 17 17 18 18 17 17 18 19 19 19 19 19 20 20 20 20 19 18 19 19 19 19 18 17 17 16 16 16 15 15 15
16 16 17 17 17 17 18 18 18 18 18 18 18 18 18 18 18 17 18 19 19 19 20 20 20 20 20 20 19 19 19 19 19 19 19 18 18 17 17 16 15 16 16
16 16 17 18 18 18 18 18 19 19 18 19 19 20 19 19 19 18 18 19 19 19 19 20 20 20 20 20 20 19 19 19 19 19 19 18 18 17 17 16 16 16 16
17 17 18 18 18 18 19 19 19 19 19 19 20 20 20 20 19 19 19 19 18 18 19 20 20 20 20 21 20 20 20 20 20 20 19 18 18 17 17 17 17 17 17
17 17 18 18 19 19 19 19 19 19 20 20 20 20 20 20 20 20 19 19 18 18 19 19 19 19 20 20 21 21 21 20 20 19 18 18 18 18 17 17 17 17 17
18 18 18 19 19 19 20 20 20 20 20 20 20 20 21 20 20 20 20 19 18 18 18 19 19 19 20 21 21 22 22 21 20 20 19 19 19 19 18 18 17 17 18
19 19 19 19 20 20 21 21 21 21 21 21 21 21 21 20 20 21 21 20 19 19 19 19 20 19 20 21 21 20 20 19 19 20 20 19 19 19 19 18 17 17 18
20 20 20 20 21 21 21 21 21 22 21 22 22 22 22 21 21 22 22 21 20 20 20 20 20 21 21 21 20 19 19 19 19 20 20 20 19 19 18 18 18 18 17
21 21 21 21 22 22 22 21 21 21 22 22 22 22 22 22 22 22 22 21 21 20 21 20 20 20 20 20 20 19 19 19 20 20 20 20 19 19 19 18 18 19 18
21 21 22 22 22 22 22 21 21 21 22 22 23 23 23 23 23 22 22 21 20 20 19 19 19 19 19 20 20 20 20 20 20 20 20 19 19 20 20 20 19 19 19
22 22 22 21 21 22 22 21 21 22 22 23 23 23 23 23 22 22 21 20 20 20 19 19 18 19 19 19 19 20 20 20 20 20 20 19 20 21 21 21 20 20 19
22 23 23 22 22 23 22 22 22 23 23 23 23 23 23 23 22 22 21 20 20 19 19 18 18 18 18 19 19 19 19 19 19 19 20 20 21 22 22 22 21 21 20
23 23 23 23 23 23 22 23 23 23 23 23 23 22 22 22 21 21 20 20 19 18 18 18 18 17 17 18 18 18 18 18 18 19 20 20 20 21 22 22 22 22 22
23 23 24 23 23 23 22 22 23 24 24 24 23 22 22 21 21 21 21 21 20 19 19 18 18 18 17 18 18 18 18 17 18 19 20 20 20 21 21 22 22 22 21
24 24 24 24 24 23 22 22 23 23 23 23 22 21 22 23 22 22 21 21 20 19 19 19 19 19 18 18 18 19 18 18 18 19 20 20 21 21 22 22 23 22 22
25 24 24 24 24 24 24 24 24 24 24 23 23 23 23 23 22 22 21 21 21 20 20 20 20 20 19 19 19 20 19 19 19 19 20 20 21 22 22 23 23 23 23
25 25 25 25 26 26 26 26 25 25 24 24 24 24 24 23 23 22 22 21 21 20 21 21 20 20 20 21 21 21 20 20 20 20 20 21 22 23 23 23 24 25 25
Wind_Direction
294 294 293 290 287 286 283 283 281 281 283 285 287 287 282 282 285 284 284 282 280 278 280 281 278 278 273 272 268 269 272 274 276 276 276 276 275 276 274 270 267 262 262
296 298 296 293 290 287 285 285 284 284 284 286 286 285 286 283 284 284 283 281 280 277 280 280 279 279 279 275 273 273 274 274 275 275 274 273 274 274 270 266 263 262 263
296 297 295 293 292 289 289 290 288 287 286 287 287 283 281 280 281 278 278 275 273 273 276 278 277 275 277 280 279 278 275 273 271 272 271 272 273 271 267 263 260 260 264
296 297 294 295 295 294 293 294 292 292 293 293 291 287 281 281 279 277 280 278 276 275 275 275 274 273 275 276 278 280 279 277 276 275 274 272 271 269 266 264 261 262 264
292 294 294 295 295 296 296 298 297 296 296 295 293 290 286 281 279 280 282 280 277 277 276 273 272 272 272 274 276 276 277 279 276 276 275 275 272 268 265 261 261 264 266
291 293 294 294 295 295 296 297 299 298 297 295 293 290 288 286 283 281 282 281 278 276 276 274 272 271 271 273 273 274 276 278 278 274 273 273 272 268 263 259 262 263 264
290 290 291 292 294 296 297 298 299 298 296 294 292 290 288 288 285 282 281 280 278 275 275 275 273 271 270 272 274 275 276 274 273 273 271 270 269 266 263 262 263 260 260
291 290 289 291 294 296 297 299 298 297 295 294 292 289 288 286 284 282 281 279 277 274 274 273 272 271 271 272 273 272 271 270 271 273 270 267 266 266 264 263 261 259 260
289 289 288 289 291 293 296 296 296 296 295 293 291 290 287 286 287 286 284 280 277 274 273 272 272 273 275 276 274 271 269 269 268 268 268 268 265 265 265 262 260 260 259
290 290 289 290 290 291 293 294 295 295 294 292 291 289 287 286 286 286 284 281 277 272 270 271 273 273 275 276 274 272 269 268 267 267 266 265 264 264 262 262 259 258 258
288 288 290 291 292 291 292 292 293 294 293 292 291 290 290 288 287 287 285 282 278 273 269 270 271 273 274 275 272 272 268 267 266 266 266 263 263 261 262 261 259 258 258
288 288 289 290 290 291 292 292 291 292 293 292 291 290 290 288 287 287 286 283 279 276 274 271 271 273 275 273 271 270 267 266 264 263 265 264 260 259 261 261 259 258 257
288 289 289 290 290 291 293 292 291 291 293 294 293 292 290 289 288 287 286 284 279 277 276 276 274 272 273 272 269 267 264 262 263 263 264 262 258 257 259 259 257 257 255
289 290 290 291 291 292 293 293 291 291 291 292 292 292 291 288 287 286 287 284 280 281 278 278 276 274 273 272 268 266 263 261 262 260 261 263 258 256 257 257 257 257 255
287 290 291 292 293 292 292 292 291 291 290 290 292 293 292 290 289 287 287 284 283 282 278 277 276 274 274 272 269 264 262 260 260 259 260 261 257 256 256 255 255 255 255
287 289 290 291 293 294 293 292 290 291 290 289 290 292 291 290 291 289 286 285 285 282 280 278 277 276 277 275 271 265 263 261 260 257 257 257 256 254 253 253 252 254 254
286 288 289 290 291 293 292 291 292 291 291 292 291 290 289 290 290 289 287 286 284 281 279 279 277 276 275 273 269 264 262 261 259 257 256 256 255 251 251 252 253 254 254
288 289 290 290 291 292 291 291 290 291 292 292 291 290 289 290 290 289 287 287 284 281 280 278 278 275 274 272 268 266 262 261 259 260 256 254 252 251 252 254 254 255 255
289 289 290 291 292 293 290 288 289 291 292 292 291 292 290 289 288 286 287 287 285 283 282 279 278 277 273 269 266 264 262 260 259 258 256 254 253 253 254 253 255 256 256
287 287 289 290 293 295 292 289 289 290 292 292 291 291 289 286 284 285 286 284 282 283 282 280 279 276 272 267 263 263 261 259 257 255 255 254 253 252 252 252 254 254 254
286 286 288 288 292 294 294 291 290 292 293 292 291 288 285 283 283 284 286 285 283 281 280 279 278 274 272 268 264 262 260 257 254 253 256 257 255 252 250 250 251 253 254
286 287 288 290 291 292 292 292 290 292 293 292 292 287 284 283 282 284 284 285 282 278 276 275 274 274 272 269 264 261 260 258 255 256 256 255 255 251 251 252 251 252 254
286 286 287 290 291 290 290 293 292 291 291 290 288 285 283 283 282 283 283 282 279 276 275 275 275 275 273 270 267 265 264 264 261 257 255 256 256 254 253 253 252 254 255
285 285 287 288 290 290 289 293 293 293 292 290 288 286 284 283 281 282 281 280 279 277 276 276 276 277 274 271 268 267 266 264 263 261 258 257 257 256 254 254 254 254 254
285 286 289 289 289 288 288 290 291 291 291 288 286 285 284 282 281 280 280 278 278 276 275 275 275 274 273 273 270 268 266 264 263 264 261 261 260 260 258 256 256 254 256
285 287 289 289 289 289 289 289 289 289 288 286 284 283 282 281 279 278 277 277 277 275 273 274 276 276 275 274 272 270 267 264 263 266 265 263 261 261 260 258 257 255 257
Height
5854 5853 5853 5852 5851 5850 5849 5848 5848 5847 5846 5845 5844 5844 5843 5842 5842 5841 5840 5840 5839 5839 5838 5838 5838 5837 5837 5836 5836 5836 5836 5836 5835 5835 5835 5834 5834 5833 5833 5833 5832 5832 5832
5852 5851 5850 5849 5848 5847 5846 5846 5845 5844 5843 5842 5841 5840 5839 5839 5838 5838 5837 5836 5836 5836 5835 5835 5834 5834 5834 5833 5833 5832 5832 5832 5832 5831 5831 5830 5830 5830 5829 5829 5829 5829 5829
5849 5848 5848 5847 5846 5845 5844 5843 5842 5841 5840 5839 5838 5837 5836 5835 5835 5834 5833 5833 5832 5832 5832 5831 5831 5830 5830 5830 5829 5829 5829 5828 5828 5827 5827 5827 5826 5826 5825 5825 5825 5825 5825
5846 5846 5845 5844 5843 5842 5841 5840 5838 5837 5836 5835 5834 5833 5832 5831 5831 5830 5829 5828 5828 5828 5828 5827 5827 5827 5826 5826 5826 5825 5825 5824 5824 5823 5823 5823 5822 5822 5822 5821 5821 5822 5822
5844 5843 5842 5841 5840 5839 5838 5837 5835 5834 5833 5832 5830 5829 5828 5827 5827 5826 5825 5824 5824 5824 5823 5823 5823 5823 5823 5822 5822 5821 5821 5820 5820 5819 5819 5818 5818 5818 5818 5817 5817 5818 5818
5841 5840 5839 5838 5837 5836 5834 5833 5832 5830 5829 5828 5827 5825 5824 5823 5822 5821 5821 5820 5819 5819 5819 5818 5818 5818 5818 5818 5817 5817 5816 5816 5815 5815 5814 5814 5814 5813 5813 5813 5813 5814 5814
5838 5837 5836 5835 5834 5832 5831 5830 5828 5827 5825 5824 5822 5821 5820 5819 5818 5817 5816 5815 5815 5814 5814 5814 5813 5813 5813 5813 5812 5812 5811 5811 5811 5810 5810 5810 5809 5809 5809 5809 5809 5809 5809
5834 5833 5832 5831 5830 5829 5827 5826 5824 5823 5821 5819 5818 5817 5816 5815 5813 5812 5811 5810 5809 5809 5809 5809 5808 5808 5808 5807 5807 5807 5806 5806 5806 5806 5805 5805 5805 5805 5805 5805 5805 5805 5805
5830 5829 5828 5827 5826 5825 5823 5822 5820 5818 5817 5815 5814 5813 5811 5810 5808 5807 5805 5804 5804 5804 5803 5803 5803 5802 5802 5802 5801 5801 5801 5801 5801 5801 5800 5800 5800 5800 5800 5801 5800 5801 5801
5826 5825 5824 5823 5822 5820 5819 5817 5816 5814 5812 5810 5809 5808 5807 5805 5804 5803 5801 5799 5799 5798 5798 5798 5797 5797 5796 5796 5796 5795 5795 5795 5795 5795 5795 5795 5795 5795 5795 5795 5796 5796 5797
5822 5821 5820 5819 5817 5816 5814 5813 5811 5809 5808 5806 5804 5803 5801 5799 5798 5797 5796 5794 5793 5793 5792 5792 5792 5791 5790 5790 5790 5790 5789 5789 5789 5789 5790 5790 5790 5790 5790 5790 5791 5791 5792
5818 5817 5815 5814 5813 5811 5809 5808 5806 5804 5803 5801 5799 5798 5797 5795 5793 5791 5790 5789 5788 5787 5786 5786 5785 5785 5784 5784 5783 5783 5783 5783 5783 5783 5784 5784 5784 5785 5785 5785 5786 5786 5787
5813 5812 5811 5809 5808 5806 5805 5803 5801 5799 5798 5796 5794 5793 5791 5789 5788 5786 5785 5784 5783 5781 5780 5780 5779 5778 5778 5778 5777 5777 5777 5777 5777 5778 5778 5778 5779 5780 5780 5780 5781 5781 5782
5809 5808 5806 5805 5803 5801 5800 5798 5796 5794 5793 5791 5789 5787 5786 5784 5782 5780 5779 5778 5777 5776 5774 5773 5773 5772 5772 5772 5771 5771 5771 5771 5771 5772 5772 5773 5773 5774 5775 5775 5776 5777 5778
5804 5803 5801 5800 5798 5796 5795 5793 5790 5789 5787 5785 5784 5782 5780 5778 5777 5775 5773 5772 5771 5771 5769 5767 5767 5766 5765 5765 5764 5764 5764 5765 5765 5765 5766 5767 5768 5769 5770 5770 5771 5772 5772
5799 5798 5796 5795 5793 5791 5789 5787 5785 5783 5782 5780 5778 5776 5774 5773 5771 5769 5767 5766 5765 5764 5763 5761 5760 5759 5758 5758 5757 5757 5758 5758 5759 5759 5760 5761 5762 5763 5764 5765 5766 5767 5768
5793 5792 5791 5789 5787 5785 5783 5781 5779 5778 5776 5774 5772 5770 5769 5767 5765 5763 5761 5760 5758 5758 5757 5755 5753 5752 5751 5751 5751 5751 5751 5752 5752 5753 5754 5755 5756 5757 5759 5760 5761 5762 5763
5788 5786 5785 5783 5781 5779 5777 5775 5774 5772 5770 5768 5766 5764 5762 5761 5759 5757 5755 5753 5752 5751 5750 5749 5747 5746 5745 5744 5744 5745 5745 5746 5746 5747 5747 5749 5750 5752 5753 5754 5755 5756 5757
5782 5780 5779 5777 5775 5773 5771 5769 5768 5766 5764 5762 5760 5758 5756 5754 5752 5750 5749 5747 5746 5744 5743 5742 5741 5740 5739 5738 5738 5739 5739 5739 5740 5740 5741 5743 5744 5746 5747 5748 5749 5751 5752
5776 5774 5773 5771 5769 5767 5765 5763 5761 5759 5757 5755 5754 5752 5749 5748 5746 5744 5743 5741 5740 5738 5737 5736 5735 5734 5733 5732 5732 5732 5733 5733 5733 5734 5735 5736 5738 5740 5741 5742 5744 5745 5746
5770 5768 5767 5765 5763 5761 5759 5757 5755 5753 5751 5749 5747 5745 5743 5741 5739 5738 5737 5735 5734 5732 5731 5730 5729 5728 5727 5726 5726 5726 5726 5726 5727 5728 5729 5730 5732 5733 5734 5736 5737 5739 5740
5763 5762 5760 5758 5756 5754 5752 5750 5748 5746 5744 5742 5740 5738 5736 5734 5733 5732 5730 5729 5728 5726 5725 5724 5723 5722 5721 5720 5720 5720 5720 5721 5721 5722 5723 5724 5725 5726 5728 5729 5730 5732 5733
5757 5755 5753 5751 5749 5747 5745 5743 5741 5739 5737 5735 5733 5731 5730 5728 5727 5725 5724 5722 5721 5720 5720 5719 5718 5717 5716 5716 5715 5715 5715 5715 5716 5716 5717 5718 5719 5720 5721 5722 5724 5725 5727
5750 5748 5746 5745 5743 5740 5738 5736 5734 5732 5730 5728 5726 5724 5723 5722 5720 5719 5717 5716 5715 5714 5713 5713 5712 5711 5711 5710 5710 5710 5710 5710 5710 5711 5711 5712 5713 5714 5715 5716 5717 5719 5720
5742 5740 5738 5737 5735 5733 5731 5729 5727 5725 5723 5721 5719 5717 5716 5714 5713 5712 5711 5710 5709 5708 5706 5706 5705 5705 5704 5704 5704 5704 5704 5704 5704 5705 5705 5706 5707 5707 5708 5709 5710 5712 5713
5735 5733 5731 5729 5728 5726 5724 5721 5719 5717 5716 5714 5712 5710 5709 5707 5706 5704 5704 5703 5702 5701 5700 5699 5699 5698 5698 5698 5697 5697 5697 5698 5698 5699 5699 5700 5700 5701 5702 5702 5703 5704 5705